This demonstration page uses our WeatherBlox Daily Observations layout. Learn more.

Left ArrowRight Arrow

Hourly Observations for September 14, 2018

Temp ( °F °C ) Dew Point ( °F °C ) Humidity (%) Winds ( mph kmh ) Pressure ( in mb ) Visibility ( mi km ) Precip ( " mm )
12:57 am 00:57 Clear 70 21.1 67 19.4 90 90 S 10 17 29.90 1013 10 16 0.00 0.00
1:57 am 01:57 Mostly Cloudy 69 20.6 67 19.4 93 93 S 12 19 29.91 1013 10 16 0.00 0.00
2:57 am 02:57 Cloudy 69 20.6 67 19.4 93 93 S 12 19 29.90 1013 10 16 0.00 0.00
3:57 am 03:57 Cloudy 69 20.6 67 19.4 93 93 S 12 19 29.90 1013 10 16 0.00 0.00
4:38 am 04:38 Mostly Clear 70 21 66 19 88 88 S 10 17 29.88 1012 10 16 0.00 0.00
4:57 am 04:57 Mostly Clear 69 20.6 67 19.4 93 93 S 12 19 29.90 1013 10 16 0.00 0.00
5:57 am 05:57 Clear 68 20 66 18.9 93 93 SSE 8 13 29.91 1013 10 16 0.00 0.00
6:40 am 06:40 Mostly Clear 66 19 66 19 100 100 SSE 9 15 29.91 1013 10 16 0.00 0.00
6:57 am 06:57 Partly Cloudy 67 19.4 66 18.9 97 97 SSE 9 15 29.92 1013 10 16 0.00 0.00
7:05 am 07:05 Mostly Cloudy 66 19 66 19 100 100 SSE 10 17 29.91 1013 9 14 0.00 0.00
7:57 am 07:57 Cloudy 67 19.4 66 18.9 97 97 S 10 17 29.94 1014 9 14 0.00 0.00
8:57 am 08:57 Cloudy 71 21.7 68 20 90 90 S 10 17 29.95 1014 10 16 0.00 0.00
9:57 am 09:57 Mostly Sunny 75 23.9 68 20 79 79 S 15 24 29.95 1014 10 16 0.00 0.00
10:57 am 10:57 Sunny 78 25.6 68 20 71 71 S 17 28 29.95 1014 10 16 0.00 0.00
11:57 am 11:57 Sunny 81 27.2 69 20.6 67 67 SSE 15 24 29.96 1014 10 16 0.00 0.00
12:57 pm 12:57 Sunny 84 28.9 69 20.6 61 61 S 17 28 29.94 1014 10 16 0.00 0.00
1:57 pm 13:57 Sunny 86 30 69 20.6 57 57 SSE 20 31 29.93 1014 10 16 0.00 0.00
2:57 pm 14:57 Sunny 88 31.1 70 21.1 55 55 S 21 33 29.91 1013 10 16 0.00 0.00
3:57 pm 15:57 Sunny 89 31.7 70 21.1 53 53 S 24 39 29.90 1013 10 16 0.00 0.00
4:57 pm 16:57 Sunny 89 31.7 69 20.6 52 52 S 23 37 29.90 1013 10 16 0.00 0.00
5:57 pm 17:57 Sunny 89 31.7 69 20.6 52 52 S 20 31 29.91 1013 10 16 0.00 0.00
6:57 pm 18:57 Sunny 86 30 69 20.6 57 57 SSE 17 28 29.93 1014 10 16 0.00 0.00
7:57 pm 19:57 Clear 81 27.2 68 20 65 65 SSE 12 19 29.95 1014 10 16 0.00 0.00
8:57 pm 20:57 Clear 78 25.6 68 20 71 71 SSE 13 20 29.96 1015 10 16 0.00 0.00
9:57 pm 21:57 Clear 76 24.4 68 20 77 77 SSE 13 20 29.98 1015 10 16 0.00 0.00
10:57 pm 22:57 Clear 74 23.3 67 19.4 79 79 SSE 13 20 29.99 1016 10 16 0.00 0.00
11:57 pm 23:57 Clear 72 22.2 67 19.4 84 84 SSE 10 17 29.99 1016 10 16 0.00 0.00

Powered by AerisWeather